星链-32241 (STARLINK-32241)

导读 | 豆包AI

STARLINK-32241是美国SpaceX公司于2024年8月12日发射的星链(Starlink)卫星,属于第二代星链星座,运行在近地轨道(LEO),承担全球宽带互联网服务任务。星链星座依托低轨布局,可实现低时延高速互联,为地面基础设施欠缺区域提供网络覆盖。STARLINK-32241配备相控阵天线与激光星间链路,依托氪离子推进系统完成轨道维持与自主避碰,助力星链网络扩展覆盖,支撑全球高速互联网接入服务。

基本信息
目录编号:
60437
目录名称:
STARLINK-32241
国际标识:
2024-144N
轨道中心:
EARTH
卫星名称:
星链-32241 (STARLINK-32241)
卫星全名:
星链-32241 (STARLINK-32241)
卫星状态:
在轨 (已飞行580 天)
发射日期:
2024-08-12 UTC
国别 :
美国 (US)
星等 :
--
轨道信息
数据来源 国际轨道数据 AOE轨道数据
星历时间 2026-03-15T01:43:52+0800
21小时前
查看轨道信息
2026-03-14T10:00:00+0800
1天前
查看轨道信息
半长轴 6853.355km 6853.304km
偏心率 0.000122 0.0001528
轨道倾角 53.161° 53.157°
近地点辐角 95.208° 62.989°
升交点赤经 193.572° 196.619°
平近点角 264.906° 284.438°
近地点 474.381km 474.119km
远地点 476.055km 476.215km
周期 94.105分钟 94.104分钟
每日圈数 15.301992 15.302161
详细信息
卫星平台:
Starlink v2.0 mini
运营商:
太空探索技术公司
运营商所在国:
美国
制造商(研发单位):
太空探索技术公司
制造商所在国:
美国
使用方式:
暂无
卫星简介
星链(Starlink)计划是由太空探索技术公司(SpaceX)提出的一个巨型低轨卫星互联网星座项目,计划在2019年至2024年间在太空搭建由约1.2万颗卫星组成的“星链”网络,其中1584颗将部署在地球上空550千米处的近地轨道,并从2020年开始工作。该卫星仍在工作。
2D轨道图
3D轨道图
轨道高度分析图
轨道倾角分析图
轨道综合分析图
查看轨道综合分析图